Regional Weather Roundup
Issued by NWS Wakefield, VA

Home | Current Version | Previous Version | Text Only | Print | Product List | Glossary Off
Versions: 1 2 3 4 5 6 7 8 9 10 11 12 13 14 15 16 17 18 19 20 21 22 23 24 25 26 27

000
ASUS41 KAKQ 230215
RWRAKQ

REGIONAL WEATHER ROUNDUP
NATIONAL WEATHER SERVICE WAKEFIELD VA
1000 PM EDT SUN OCT 22 2017

Note: "fair" indicates few or no clouds below 12,000 feet with no
significant weather and/or obstructions to visibility. * = Denotes
station may not report precipitation (e.g., rain,snow,etc.),
thunder or fog.

VAZ042-051-052>054-056-230300-
NORTHERN VIRGINIA

CITY           SKY/WX    TMP DP  RH WIND       PRES   REMARKS
WASH NATIONAL  MOCLDY    65  55  70 SW5       30.34R
DULLES         CLOUDY    61  53  75 SE6       30.32S
FORT BELVOIR   CLOUDY    55  52  89 CALM      30.33R
QUANTICO       CLOUDY    66  61  84 S8        30.33S
FREDERICKSBRG* PTCLDY    59  59 100 CALM      30.32S
STAFFORD*      MOCLDY    54  54 100 CALM      30.37R
WARRENTON      CLOUDY    64  52  66 SE6       30.31S
CULPEPER*      PTCLDY    59  54  82 CALM      30.32S
MANASSAS*      CLOUDY    62  55  77 CALM      30.33R
LEESBURG*      CLOUDY    63  55  77 S5        30.33S
WINCHESTER     PTCLDY    59  54  82 CALM      30.30S
FRONT ROYAL*   PTCLDY    64  55  72 CALM      30.28F
LURAY*         CLOUDY    59  54  82 CALM      30.29F
$$

VAZ048-049-060>072-079>083-230300-
CENTRAL AND SOUTH CENTRAL VIRGINIA

CITY           SKY/WX    TMP DP  RH WIND       PRES   REMARKS
RICHMOND       MOCLDY    61  59  93 SE6       30.32S
CHESTERFIELD*  NOT AVBL
PETERSBURG*    CLOUDY    61  58  91 E5        30.32S
HANOVER        CLOUDY    59  56  89 CALM      30.34R
TAPPAHANNOCK*  CLOUDY   N/A N/A N/A SE3       30.34S
QUINTON*       FAIR      59  59 100 CALM      30.32F
CHARLOTTSVILLE MOCLDY    66  56  70 S6        30.30F
GORDONSVILLE*  PTCLDY    57  57  98 CALM      30.31S
ORANGE*        CLOUDY    54  52  94 CALM      30.31S
LOUISA*        CLOUDY    61  54  77 SE3       30.31S
BUMPASS*       FAIR      61  57  86 S7        30.32S
FARMVILLE*     CLOUDY    63  58  84 CALM      30.29F
CREWE*         FAIR      55  55 100 CALM      30.31R
FORT PICKETT*  FAIR      60  60 100 S6        30.32R
CHASE CITY*    FAIR      63  54  73 SE3       30.31R
CLARKSVILLE*   MOCLDY    63  61  94 CALM      30.30R
SOUTH HILL*    CLOUDY    57  55  92 CALM      30.37R
LAWRENCEVILLE* FAIR      64  58  81 E3        30.31S
EMPORIA*       CLEAR     61  59  94 NE3       30.33S
$$

VAZ088>098-230300-
SOUTHEAST VIRGINIA

CITY           SKY/WX    TMP DP  RH WIND       PRES   REMARKS
NORFOLK        PTCLDY    67  64  90 E5        30.32S
VIRGINIA BEACH MOCLDY    66  63  90 E6        30.32R
NORFOLK NAVAL  CLOUDY    64  61  90 SE5       30.34R
WEST POINT*    PTCLDY    56  56 100 CALM      30.35S
SALUDA*        FAIR      60  60 100 CALM      30.33S
NEWPORT NEWS   CLOUDY    59  58  96 CALM      30.33R
LANGLEY AFB    CLOUDY    66  65  95 CALM      30.32S
FORT EUSTIS    CLOUDY    61  57  86 CALM      30.31R
WILLIAMSBURG*  CLOUDY    63  63 100 E5        30.34S
HR EXEC AP*    NOT AVBL
FRANKLIN*      CLOUDY    60  59  96 CALM      30.33S
US460-WAKEFLD  CLOUDY    58  58 100 CALM      30.33S
$$

VAZ020-022-025-037-045-230300-
WEST CENTRAL AND SOUTHWEST VIRGINIA

CITY           SKY/WX    TMP DP  RH WIND       PRES   REMARKS
STAUNTON*      CLOUDY    53  51  90 CALM      30.32S
WAYNESBORO*    CLOUDY    60  55  84 SE3       30.32S
HOT SPRINGS VA CLOUDY    56  47  70 SE13G20   30.36S
LYNCHBURG      CLOUDY    58  52  80 CALM      30.31R
DANVILLE       MOCLDY    58  55  90 E3        30.29R
SOUTH BOSTON*  FAIR      58  54  86 CALM      30.29S
MARTINSVILLE   MOCLDY    54  52  94 CALM      30.31S
ROANOKE        MOCLDY    60  53  77 CALM      30.32R
BLACKSBURG     PTCLDY    60  52  74 E3        30.35S
DUBLIN*        CLOUDY    61  53  75 CALM      30.33S
MARION*        CLOUDY    62  50  63 E6        30.32F
HILLSVILLE*    PTCLDY    58  48  68 CALM      30.31F
RICHLANDS*     FAIR      62  43  49 SE9G16    30.26F
WISE*          CLOUDY    63  52  67 S7        30.24S
ABINGDON*      CLOUDY    68  53  58 SE7       30.25S
$$

MDZ021>025-VAZ099-100-230300-
SOUTHERN MARYLAND AND THE DELMARVA PENINSULA

CITY           SKY/WX    TMP DP  RH WIND       PRES   REMARKS
PATUXENT RIVER PTCLDY    64  61  90 S5        30.33S
BAY BRIDGE APT CLEAR     63  57  82 SE6       30.34S
LEONARDTOWN    NOT AVBL
DOVER          PTCLDY    61  61 100 CALM      30.35R
GEORGETOWN     PTCLDY    59  57  93 CALM      30.36S FOG
EASTON         CLEAR     61  54  77 CALM      30.38R
CAMBRIDGE      PTCLDY    57  55  94 E5        30.34S
SALISBURY      FOG       60  60 100 E3        30.35S VSB 1/4
OCEAN CITY     MOCLDY    62  62 100 CALM      30.37R
WALLOPS ISLAND CLOUDY    65  65 100 NE3       30.36R
ACCOMACK*      CLEAR     61  60  98 E3        30.34R
$$

NCZ012>017-030>032-230300-
NORTH CENTRAL AND EASTERN NORTH CAROLINA

CITY           SKY/WX    TMP DP  RH WIND       PRES   REMARKS
ROANOKE RAPIDS FAIR      59  59 100 CALM      30.31R
RALEIGH        MOCLDY    66  58  75 SE5       30.30R
ELIZABETH CITY CLOUDY    66  66 100 E3        30.33R
AHOSKIE*       CLOUDY    62  60  94 CALM      30.32S
EDENTON*       CLOUDY    67  65  93 CALM      30.33R
CURRITUCK*     CLOUDY    67  66  95 CALM      30.33R
KILL DEVIL HLS CLOUDY    69  68  99 CALM      30.31R
MANTEO         CLOUDY   N/A N/A N/A E3        30.32S
CAPE HATTERAS  CLEAR     66  64  93 E3        30.31R
TARBORO*       NOT AVBL
GOLDSBORO      CLEAR     67  63  86 E7        30.28R HAZE
WASHINGTON     PTCLDY    61  60  95 CALM      30.31S
GREENVILLE     CLEAR     66  61  82 CALM      30.31S
NEW BERN       CLEAR     68  65  90 E3        30.31R
WILMINGTON     PTCLDY    65  64  97 CALM      30.27R FOG
$$

VAZ048-230300-
ELSEWHERE

CITY           SKY/WX    TMP DP  RH WIND       PRES   REMARKS
HARRISBURG PA  MOCLDY    57  51  80 E3        30.33S
BALTIMORE      MOCLDY    60  55  83 E3        30.33S
ANNAPOLIS      PTCLDY    67  64  90 SE10      30.33S
ANDREWS AFB    PTCLDY    58  52  80 SE6       30.33R
PHILADELPHIA   MOCLDY    60  53  77 SE3       30.37R
HENDERSON NC   CLEAR     55  52  88 NE3       30.30S
GREENSBORO     CLOUDY    64  57  78 E5        30.27S
ROCKY MOUNT    PTCLDY    64  62  93 CALM      30.30R
$$

VAZ100-230300-
MARINE

STATION/POSITION TIME  TEMP    WIND        PRES    WAVE   SWELL
                       AIR SEA DIR/SP/G            HT/PER HT/PER
                 (UTC) (F)     (DEG/KT/KT) (MB)    (FT/S) (FT/S)
BRANDYWINE LGT   0148   68                 1028.4R
CAPE MAY NJ      0148   66 67              1027.7R
LEWES DE         0148   66 67              1027.9R
15NM E FENWICK I 0150   68 68  120/ 10/ 12 1028.3R   2/ 9   2/ 9
OCEAN-CITY-INLET 0148   67 68              1028.3R
WACHAPREAGUE VA  0148   68 69              1027.4R
THOMAS POINT MD  0200   66 68  160/ 14/ 15   N/A
GOOSES REEF MD   0200   67 69  180/ 10/ 14 1026.8    1/ 2
COVE POINT MD    0148   68                 1027.9S
SOLOMONS ISLAND  0148   67 69              1026.9S
BISHOPS HEAD MD  0148   66 69              1027.7R
PINEY POINT MD   0124          180/  8/  9   N/A
POTOMAC MD       0200   69 69  150/ 10/ 12 1026.7    1/ 3
CAMBRIDGE MD     0148   62 68              1028.3R
LEWISETTA VA     0148   65 67              1027.1R
RAPPAHANNOCK LGT 0148                      1027.7R
STINGRAY PT      0200   69 69  160/  8/ 12 1027.3    1/ 3
YORK RVR RNG VA  0148   70                 1027.4R
YORKTOWN VA      0148   67 70              1026.6R
JAMESTOWN VA     0200      70  120/  4/  6   N/A     0
DOMINION TERM VA 0148   69                 1027.2R
KIPTOPEKE VA     0148      69                N/A
CAPE HENRY VA    0148   69                   N/A
WILLOUBY STN VA  0148   69                 1026.8R
S CRANEY ISL VA  0148   68                 1026.7R
CAPE HENRY BUOY  0200      70                N/A     2/ 9
1ST LANDING BUOY 0200   70 69              1026.8    2/ 3
CAPE CHARLES BUO 0151      70                N/A     2/ 9
64NM E OF VA BCH 0150   70 69   90/  8/ 10 1027.2S   3/ 9   2/ 9
DUCK PIER NC     0148   70 70              1026.3R
44100 DUCK FRF   0041      71                N/A     3/25   2/25
44056 DUCK FRF   0200      70                N/A     2/ 9
OREGON INLET NC  0148                      1026.5R
HATTERAS NC      0148   71 73              1026.1R
DIAMOND SHLS NC  0150   77 81  120/ 10/ 12 1025.9R   3/ 9   3/ 9
CAPE LOOKOUT NC  0200   75     120/  8/  8 1025.3S
$$




USA.gov is the U.S. government's official web portal to all federal, state and local government web resources and services.